MSR68 HECA-HELX

Flight info

Callsign MSR68
Flight time N/A
Altitude 31000
Route CVO A727 LXR
Aircraft A320/M-SDE3FGHIRWY/LB1

Departure

Time 2026-05-07 13:37
Airport Cairo International Airport (HECA)

Arrival

Time N/A
Airport Luxor International Airport (HELX)
Time Latitude Longitude Altitude Speed Heading
2026-05-07 13:21 30.10703 31.39211 374 ft 0 kts 75°
2026-05-07 13:26 30.10702 31.39204 374 ft 2 kts 75°
2026-05-07 13:27 30.10697 31.39186 374 ft 2 kts 75°
2026-05-07 13:27 30.10693 31.39168 374 ft 2 kts 75°
2026-05-07 13:27 30.10689 31.39149 374 ft 2 kts 75°
2026-05-07 13:27 30.10685 31.39130 374 ft 2 kts 80°
2026-05-07 13:28 30.10684 31.39111 374 ft 2 kts 118°
2026-05-07 13:28 30.10694 31.39098 374 ft 1 kts 160°
2026-05-07 13:28 30.10696 31.39097 374 ft 0 kts 168°
2026-05-07 13:31 30.10695 31.39097 374 ft 2 kts 168°
2026-05-07 13:31 30.10665 31.39107 374 ft 7 kts 163°
2026-05-07 13:31 30.10616 31.39123 374 ft 9 kts 165°
2026-05-07 13:31 30.10542 31.39151 374 ft 14 kts 144°
2026-05-07 13:32 30.10542 31.39266 374 ft 17 kts 74°
2026-05-07 13:32 30.10575 31.39402 374 ft 18 kts 75°
2026-05-07 13:32 30.10539 31.39509 374 ft 16 kts 163°
2026-05-07 13:32 30.10519 31.39516 374 ft 0 kts 159°
2026-05-07 13:33 30.10515 31.39522 374 ft 2 kts 133°
2026-05-07 13:33 30.10514 31.39546 374 ft 5 kts 81°
2026-05-07 13:33 30.10530 31.39607 374 ft 11 kts 73°
2026-05-07 13:33 30.10548 31.39710 374 ft 16 kts 94°
2026-05-07 13:34 30.10448 31.39778 374 ft 19 kts 165°
2026-05-07 13:34 30.10263 31.39668 374 ft 15 kts 229°
2026-05-07 13:34 30.10197 31.39585 374 ft 13 kts 219°
2026-05-07 13:35 30.10122 31.39597 374 ft 11 kts 141°
2026-05-07 13:35 30.10069 31.39650 374 ft 9 kts 139°
2026-05-07 13:35 30.10024 31.39695 374 ft 8 kts 133°
2026-05-07 13:35 30.10003 31.39747 374 ft 7 kts 102°
2026-05-07 13:36 30.10003 31.39795 374 ft 6 kts 84°
2026-05-07 13:36 30.09995 31.39864 372 ft 12 kts 77°
2026-05-07 13:36 30.10072 31.39963 370 ft 27 kts 46°
2026-05-07 13:36 30.10356 31.40336 376 ft 94 kts 50°
2026-05-07 13:37 30.10908 31.41072 373 ft 146 kts 48°
2026-05-07 13:37 30.11577 31.42008 885 ft 149 kts 45°
2026-05-07 13:37 30.12059 31.43077 1427 ft 158 kts 81°
2026-05-07 13:37 30.11750 31.44321 1987 ft 172 kts 123°
2026-05-07 13:38 30.10690 31.45154 2329 ft 202 kts 159°
2026-05-07 13:38 30.09210 31.45461 2569 ft 229 kts 169°
2026-05-07 13:38 30.07554 31.45738 2878 ft 254 kts 169°
2026-05-07 13:38 30.05719 31.46037 3345 ft 276 kts 170°
2026-05-07 13:39 30.03821 31.46341 4169 ft 281 kts 170°
2026-05-07 13:39 30.01840 31.46658 5049 ft 286 kts 170°
2026-05-07 13:39 29.99864 31.46976 5906 ft 289 kts 171°
2026-05-07 13:39 29.97880 31.47295 6722 ft 294 kts 172°
2026-05-07 13:40 29.95839 31.47624 7538 ft 298 kts 171°
2026-05-07 13:40 29.93780 31.47959 8340 ft 301 kts 172°
2026-05-07 13:40 29.91680 31.48299 8864 ft 307 kts 172°
2026-05-07 13:40 29.89576 31.48642 9019 ft 306 kts 172°
2026-05-07 13:41 29.87452 31.48990 9237 ft 310 kts 172°
2026-05-07 13:41 29.85315 31.49342 10100 ft 311 kts 172°
2026-05-07 13:41 29.83117 31.49703 10463 ft 331 kts 172°
2026-05-07 13:41 29.80753 31.50089 10659 ft 354 kts 172°
2026-05-07 13:42 29.78277 31.50491 11144 ft 364 kts 172°
2026-05-07 13:42 29.75746 31.50902 11815 ft 369 kts 173°
2026-05-07 13:42 29.73190 31.51319 12525 ft 373 kts 173°
2026-05-07 13:42 29.70612 31.51746 13235 ft 377 kts 172°
2026-05-07 13:43 29.68042 31.52473 13921 ft 381 kts 165°
2026-05-07 13:43 29.65478 31.53315 14548 ft 385 kts 165°
2026-05-07 13:43 29.62897 31.54167 15172 ft 388 kts 165°
2026-05-07 13:43 29.60284 31.55029 15787 ft 392 kts 165°
2026-05-07 13:44 29.57690 31.55880 16380 ft 395 kts 165°
2026-05-07 13:44 29.54965 31.56774 17012 ft 398 kts 165°
2026-05-07 13:44 29.52287 31.57650 17617 ft 402 kts 165°
2026-05-07 13:44 29.49593 31.58530 18227 ft 405 kts 165°
2026-05-07 13:45 29.46874 31.59417 18752 ft 408 kts 165°
2026-05-07 13:45 29.44134 31.60306 19294 ft 411 kts 165°
2026-05-07 13:45 29.41367 31.61204 19842 ft 413 kts 165°
2026-05-07 13:45 29.38595 31.62104 20381 ft 416 kts 165°
2026-05-07 13:46 29.35766 31.63022 20915 ft 419 kts 165°
2026-05-07 13:46 29.32952 31.63938 21444 ft 422 kts 165°
2026-05-07 13:46 29.30121 31.64861 21960 ft 424 kts 165°
2026-05-07 13:46 29.27262 31.65795 22460 ft 427 kts 165°
2026-05-07 13:47 29.24359 31.66739 22963 ft 430 kts 165°
2026-05-07 13:47 29.21466 31.67677 23438 ft 433 kts 165°
2026-05-07 13:47 29.18567 31.68617 23863 ft 435 kts 165°
2026-05-07 13:47 29.15598 31.69581 24258 ft 438 kts 165°
2026-05-07 13:48 29.12666 31.70534 24641 ft 440 kts 165°
2026-05-07 13:48 29.09629 31.71523 25028 ft 442 kts 165°
2026-05-07 13:48 29.06669 31.72482 25390 ft 444 kts 165°
2026-05-07 13:48 29.03688 31.73443 25749 ft 446 kts 165°
2026-05-07 13:49 29.01740 31.74071 25982 ft 447 kts 165°
2026-05-07 13:49 28.98732 31.75042 26352 ft 449 kts 165°
2026-05-07 13:49 28.94736 31.76328 26802 ft 452 kts 166°
2026-05-07 13:49 28.91703 31.77294 27144 ft 454 kts 166°
2026-05-07 13:50 28.88654 31.78260 27468 ft 456 kts 166°
2026-05-07 13:50 28.85582 31.79231 27798 ft 458 kts 166°
2026-05-07 13:50 28.82508 31.80204 28099 ft 461 kts 166°
2026-05-07 13:50 28.80462 31.80851 28305 ft 462 kts 166°
2026-05-07 13:51 28.77360 31.81836 28605 ft 464 kts 166°
2026-05-07 13:51 28.74245 31.82827 28890 ft 467 kts 166°
2026-05-07 13:51 28.71102 31.83825 29156 ft 469 kts 166°
2026-05-07 13:51 28.67958 31.84821 29416 ft 471 kts 166°
2026-05-07 13:52 28.64793 31.85826 29687 ft 473 kts 166°
2026-05-07 13:52 28.61618 31.86836 29944 ft 475 kts 166°
2026-05-07 13:52 28.58857 31.87710 30149 ft 477 kts 166°
2026-05-07 13:52 28.55599 31.88736 30352 ft 479 kts 166°
2026-05-07 13:53 28.52384 31.89749 30538 ft 481 kts 166°
2026-05-07 13:53 28.49153 31.90769 30803 ft 480 kts 166°
2026-05-07 13:53 28.45936 31.91784 30994 ft 481 kts 166°
2026-05-07 13:54 28.39592 31.93784 31029 ft 468 kts 166°
2026-05-07 13:54 28.33338 31.95754 31029 ft 466 kts 166°
2026-05-07 13:55 28.27083 31.97723 31038 ft 466 kts 166°
2026-05-07 13:55 28.20832 31.99686 31024 ft 466 kts 166°
2026-05-07 13:56 28.14590 32.01637 31033 ft 466 kts 166°
2026-05-07 13:56 28.08353 32.03589 31023 ft 465 kts 166°
2026-05-07 13:57 28.02021 32.05569 31014 ft 465 kts 166°
2026-05-07 13:57 27.95784 32.07556 31009 ft 465 kts 165°
2026-05-07 13:58 27.89553 32.09574 31005 ft 465 kts 165°
2026-05-07 13:58 27.83323 32.11585 31000 ft 466 kts 166°
2026-05-07 13:59 27.77088 32.13566 30990 ft 466 kts 166°
2026-05-07 13:59 27.70859 32.15537 30974 ft 465 kts 166°
2026-05-07 14:00 27.64573 32.17540 30955 ft 466 kts 166°
2026-05-07 14:00 27.58345 32.19515 30962 ft 466 kts 166°
2026-05-07 14:01 27.52100 32.21505 30960 ft 466 kts 166°
2026-05-07 14:01 27.45861 32.23491 30940 ft 465 kts 166°
2026-05-07 14:02 27.39669 32.25450 30946 ft 465 kts 166°
2026-05-07 14:02 27.33436 32.27424 30933 ft 465 kts 166°
2026-05-07 14:03 27.27244 32.29377 30930 ft 465 kts 166°
2026-05-07 14:03 27.20938 32.31370 30931 ft 464 kts 166°
2026-05-07 14:03 27.17732 32.32381 30712 ft 465 kts 166°
2026-05-07 14:04 27.14622 32.33366 30475 ft 465 kts 166°
2026-05-07 14:04 27.11510 32.34352 30234 ft 464 kts 166°
2026-05-07 14:04 27.08406 32.35331 29989 ft 462 kts 166°
2026-05-07 14:04 27.05313 32.36298 29713 ft 460 kts 167°
2026-05-07 14:05 27.02174 32.36741 29427 ft 453 kts 182°
2026-05-07 14:05 26.99026 32.36632 29141 ft 450 kts 184°
2026-05-07 14:05 26.95907 32.36474 28552 ft 446 kts 185°
2026-05-07 14:05 26.92827 32.36313 27968 ft 441 kts 185°
2026-05-07 14:06 26.89782 32.36152 27402 ft 437 kts 185°
2026-05-07 14:06 26.86749 32.35991 26846 ft 433 kts 185°
2026-05-07 14:06 26.83750 32.35831 26306 ft 430 kts 185°
2026-05-07 14:06 26.80771 32.35671 25763 ft 426 kts 185°
2026-05-07 14:07 26.77828 32.35513 25254 ft 422 kts 185°
2026-05-07 14:07 26.74905 32.35356 24744 ft 419 kts 185°
2026-05-07 14:07 26.72005 32.35202 24257 ft 416 kts 185°
2026-05-07 14:07 26.69158 32.35051 23775 ft 413 kts 185°
2026-05-07 14:08 26.66303 32.34900 23273 ft 410 kts 185°
2026-05-07 14:08 26.63468 32.34751 22750 ft 406 kts 185°
2026-05-07 14:08 26.60656 32.34605 22245 ft 403 kts 185°
2026-05-07 14:08 26.57820 32.34461 21749 ft 400 kts 185°
2026-05-07 14:09 26.55012 32.34318 21260 ft 397 kts 185°
2026-05-07 14:09 26.52225 32.34176 20798 ft 394 kts 185°
2026-05-07 14:09 26.49503 32.34040 20329 ft 391 kts 185°
2026-05-07 14:09 26.46787 32.33906 19866 ft 388 kts 185°
2026-05-07 14:10 26.44094 32.33797 19424 ft 386 kts 181°
2026-05-07 14:10 26.41426 32.34061 18995 ft 385 kts 175°
2026-05-07 14:10 26.38811 32.34429 18547 ft 383 kts 175°
2026-05-07 14:10 26.36133 32.34814 18103 ft 380 kts 174°
2026-05-07 14:11 26.33557 32.35187 17622 ft 378 kts 174°
2026-05-07 14:11 26.30960 32.35563 17155 ft 375 kts 174°
2026-05-07 14:11 26.28370 32.35940 16686 ft 373 kts 174°
2026-05-07 14:11 26.25808 32.36313 16241 ft 371 kts 174°
2026-05-07 14:12 26.23255 32.36682 15809 ft 369 kts 175°
2026-05-07 14:12 26.20723 32.37047 15392 ft 366 kts 174°
2026-05-07 14:12 26.18203 32.37410 14959 ft 364 kts 174°
2026-05-07 14:12 26.15688 32.37770 14545 ft 362 kts 174°
2026-05-07 14:13 26.13195 32.38124 14137 ft 360 kts 175°
2026-05-07 14:13 26.10720 32.38476 13714 ft 359 kts 174°
2026-05-07 14:13 26.08247 32.38828 13271 ft 357 kts 174°
2026-05-07 14:13 26.05798 32.39177 12837 ft 354 kts 174°
2026-05-07 14:14 26.03364 32.39527 12389 ft 352 kts 175°
2026-05-07 14:14 26.00939 32.39880 11957 ft 350 kts 174°
2026-05-07 14:14 25.98534 32.40232 11521 ft 347 kts 175°
2026-05-07 14:14 25.96160 32.40577 11094 ft 345 kts 174°
2026-05-07 14:15 25.93779 32.40929 10663 ft 342 kts 175°
2026-05-07 14:15 25.91458 32.41272 10302 ft 338 kts 174°
2026-05-07 14:15 25.89163 32.41605 10180 ft 326 kts 174°
2026-05-07 14:15 25.86957 32.41929 10063 ft 314 kts 174°
2026-05-07 14:16 25.84832 32.42241 9940 ft 304 kts 174°
2026-05-07 14:16 25.82817 32.42539 9677 ft 299 kts 174°
2026-05-07 14:16 25.80700 32.42853 9308 ft 297 kts 174°
2026-05-07 14:16 25.78664 32.43151 8939 ft 295 kts 174°
2026-05-07 14:17 25.76632 32.43447 8561 ft 294 kts 174°
2026-05-07 14:17 25.74603 32.43740 8166 ft 293 kts 174°
2026-05-07 14:17 25.72609 32.44022 7783 ft 291 kts 175°
2026-05-07 14:17 25.70610 32.44302 7384 ft 291 kts 174°
2026-05-07 14:18 25.69280 32.44489 7111 ft 290 kts 174°
2026-05-07 14:18 25.67063 32.44793 6667 ft 289 kts 175°
2026-05-07 14:18 25.65015 32.45103 6295 ft 289 kts 169°
2026-05-07 14:18 25.63052 32.45769 5892 ft 288 kts 158°
2026-05-07 14:19 25.61160 32.46746 5459 ft 288 kts 155°
2026-05-07 14:19 25.59362 32.47714 5102 ft 287 kts 154°